Location: St. Louis
(38.6270°N, 90.1994°W)
Time: 05:08:26
(UTC-05:00)

RS-15 - Pass Details

Date: 01 February 2022
Orbit: 1881 x 2163 km, 64.8° (Epoch: 20 May)

Event Time Altitude Azimuth Distance (km) Brightness Sun altitude
Rises 19:30:41 0° 267° (W) 5,479 11.8 -25.2°
Reaches altitude 10° 19:35:00 10° 280° (W) 4,524 10.9 -26.0°
Maximum altitude 19:44:21 26° 333° (NNW) 3,486 9.5 -27.8°
Drops below altitude 10° 19:54:03 10° 26° (NNE) 4,674 9.8 -29.7°
Enters shadow 19:55:55 - 32° (NNE) 5,070 9.9 -30.1°
